| time (UTC) | temp F | wind direction | speed MPH | gust MPH | rain 1hr in | rain 24hr in | rain mn in | humidity % | barometer mb |
| 20260509093332 | 52 | 248 | 0.0 | 1.0 | 0.00 | 0.02 | 0.02 | 100 | 1008.2 |
| 20260509092854 | 52 | 186 | 0.0 | 0.0 | 0.00 | 0.02 | 0.02 | 100 | 1008.4 |
| 20260509092318 | 52 | 186 | 0.0 | 2.0 | 0.00 | 0.02 | 0.02 | 100 | 1008.4 |
| 20260509091824 | 52 | 186 | 0.0 | 2.0 | 0.00 | 0.02 | 0.02 | 100 | 1008.4 |
| 20260509091351 | 52 | 186 | 0.0 | 1.0 | 0.00 | 0.02 | 0.02 | 100 | 1008.5 |
| 20260509090835 | 52 | 188 | 0.0 | 0.0 | 0.00 | 0.02 | 0.02 | 100 | 1008.5 |
| 20260509090320 | 52 | 188 | 0.0 | 0.0 | 0.00 | 0.02 | 0.02 | 100 | 1008.5 |
| 20260509085842 | 52 | 188 | 0.0 | 0.0 | 0.00 | 0.02 | 0.02 | 100 | 1008.6 |
| 20260509085325 | 52 | 188 | 0.0 | 0.0 | 0.00 | 0.02 | 0.02 | 100 | 1008.6 |
| 20260509084831 | 52 | 188 | 0.0 | 1.0 | 0.00 | 0.02 | 0.02 | 100 | 1008.6 |
| 20260509084318 | 52 | 188 | 0.0 | 1.0 | 0.00 | 0.02 | 0.02 | 100 | 1008.8 |
| 20260509083827 | 52 | 188 | 0.0 | 1.0 | 0.00 | 0.02 | 0.02 | 100 | 1008.8 |
| 20260509083312 | 52 | 178 | 0.0 | 2.0 | 0.00 | 0.02 | 0.02 | 100 | 1008.8 |
| 20260509082821 | 52 | 177 | 0.0 | 2.0 | 0.00 | 0.02 | 0.02 | 100 | 1008.8 |
| 20260509082327 | 52 | 175 | 0.0 | 1.0 | 0.00 | 0.02 | 0.02 | 100 | 1008.8 |
| 20260509081830 | 52 | 175 | 0.0 | 2.0 | 0.00 | 0.02 | 0.02 | 100 | 1008.8 |
| 20260509081337 | 52 | 178 | 0.0 | 2.0 | 0.00 | 0.02 | 0.02 | 100 | 1008.9 |
| 20260509080842 | 52 | 178 | 0.0 | 0.0 | 0.00 | 0.02 | 0.02 | 100 | 1008.9 |
| 20260509080353 | 52 | 178 | 0.0 | 0.0 | 0.00 | 0.02 | 0.02 | 100 | 1008.9 |
| 20260509075834 | 52 | 178 | 0.0 | 0.0 | 0.00 | 0.02 | 0.02 | 100 | 1009.0 |
| 20260509075317 | 52 | 178 | 0.0 | 0.0 | 0.00 | 0.02 | 0.02 | 100 | 1009.0 |
| 20260509074824 | 52 | 178 | 0.0 | 0.0 | 0.00 | 0.02 | 0.02 | 100 | 1009.0 |
| 20260509074333 | 52 | 178 | 0.0 | 0.0 | 0.00 | 0.02 | 0.02 | 100 | 1009.1 |
| 20260509073816 | 52 | 178 | 0.0 | 0.0 | 0.00 | 0.02 | 0.02 | 100 | 1009.1 |
| 20260509073324 | 52 | 178 | 0.0 | 0.0 | 0.00 | 0.02 | 0.02 | 100 | 1009.1 |
| 20260509072830 | 52 | 178 | 0.0 | 0.0 | 0.00 | 0.02 | 0.02 | 100 | 1009.0 |
| 20260509072356 | 52 | 178 | 0.0 | 0.0 | 0.00 | 0.02 | 0.02 | 100 | 1009.0 |
| 20260509071821 | 52 | 178 | 0.0 | 0.0 | 0.00 | 0.02 | 0.02 | 100 | 1009.0 |
| 20260509071344 | 52 | 178 | 0.0 | 0.0 | 0.01 | 0.02 | 0.02 | 100 | 1009.2 |
| 20260509070828 | 52 | 178 | 0.0 | 0.0 | 0.01 | 0.02 | 0.02 | 100 | 1009.2 |
| 20260509070333 | 52 | 178 | 0.0 | 0.0 | 0.01 | 0.02 | 0.02 | 100 | 1009.2 |
| 20260509065835 | 52 | 178 | 0.0 | 0.0 | 0.01 | 0.02 | 0.02 | 100 | 1009.2 |
| 20260509065322 | 52 | 178 | 0.0 | 0.0 | 0.01 | 0.02 | 0.02 | 100 | 1009.2 |
| 20260509064812 | 52 | 178 | 0.0 | 0.0 | 0.01 | 0.02 | 0.02 | 100 | 1009.2 |
| 20260509064321 | 52 | 178 | 0.0 | 0.0 | 0.01 | 0.02 | 0.02 | 100 | 1009.2 |
| 20260509063825 | 52 | 178 | 0.0 | 0.0 | 0.01 | 0.02 | 0.02 | 100 | 1009.2 |
| 20260509063330 | 52 | 178 | 0.0 | 0.0 | 0.01 | 0.02 | 0.02 | 100 | 1009.2 |
| 20260509062836 | 52 | 178 | 0.0 | 0.0 | 0.01 | 0.02 | 0.02 | 100 | 1009.4 |
| 20260509062321 | 52 | 178 | 0.0 | 0.0 | 0.02 | 0.02 | 0.02 | 100 | 1009.4 |
| 20260509061828 | 52 | 178 | 0.0 | 0.0 | 0.02 | 0.02 | 0.02 | 100 | 1009.4 |
| 20260509061351 | 52 | 178 | 0.0 | 0.0 | 0.01 | 0.01 | 0.01 | 100 | 1009.6 |
| 20260509060835 | 52 | 178 | 0.0 | 0.0 | 0.01 | 0.01 | 0.01 | 100 | 1009.6 |
| 20260509060319 | 52 | 178 | 0.0 | 0.0 | 0.01 | 0.01 | 0.01 | 100 | 1009.6 |
| 20260509055820 | 52 | 178 | 0.0 | 0.0 | 0.01 | 0.01 | 0.01 | 100 | 1009.7 |
| 20260509055326 | 52 | 178 | 0.0 | 0.0 | 0.01 | 0.01 | 0.01 | 100 | 1009.7 |
| 20260509054836 | 52 | 178 | 0.0 | 0.0 | 0.01 | 0.01 | 0.01 | 100 | 1009.7 |
| 20260509054322 | 52 | 178 | 0.0 | 0.0 | 0.01 | 0.01 | 0.01 | 100 | 1009.7 |
| 20260509053828 | 52 | 178 | 0.0 | 0.0 | 0.01 | 0.01 | 0.01 | 100 | 1009.7 |
| 20260509053316 | 52 | 178 | 0.0 | 0.0 | 0.01 | 0.01 | 0.01 | 100 | 1009.7 |
| 20260509052819 | 52 | 178 | 0.0 | 0.0 | 0.01 | 0.01 | 0.01 | 99 | 1009.8 |
| 20260509052344 | 52 | 178 | 0.0 | 0.0 | 0.00 | 0.00 | 0.00 | 99 | 1009.8 |
| 20260509051829 | 52 | 178 | 0.0 | 0.0 | 0.00 | 0.00 | 0.00 | 99 | 1009.8 |
| 20260509051331 | 52 | 178 | 0.0 | 0.0 | 0.00 | 0.00 | 0.00 | 99 | 1009.9 |
| 20260509050821 | 52 | 178 | 0.0 | 0.0 | 0.00 | 0.00 | 0.00 | 99 | 1009.9 |
| 20260509050349 | 52 | 178 | 0.0 | 0.0 | 0.00 | 0.00 | 0.00 | 99 | 1009.9 |
| 20260509045833 | 52 | 178 | 0.0 | 0.0 | 0.00 | 0.00 | 0.00 | 99 | 1009.7 |
| 20260509045318 | 52 | 178 | 0.0 | 0.0 | 0.00 | 0.00 | 0.00 | 99 | 1009.7 |
| 20260509044831 | 52 | 178 | 0.0 | 0.0 | 0.00 | 0.00 | 0.00 | 99 | 1009.7 |
| 20260509044332 | 52 | 178 | 0.0 | 0.0 | 0.00 | 0.00 | 0.00 | 99 | 1009.7 |
| 20260509043816 | 52 | 178 | 0.0 | 0.0 | 0.00 | 0.00 | 0.00 | 99 | 1009.7 |
| 20260509043323 | 52 | 178 | 0.0 | 0.0 | 0.00 | 0.00 | 0.00 | 99 | 1009.7 |
| 20260509042829 | 52 | 178 | 0.0 | 0.0 | 0.00 | 0.00 | 0.00 | 99 | 1010.1 |
| 20260509042335 | 52 | 178 | 0.0 | 0.0 | 0.00 | 0.00 | 0.00 | 99 | 1010.1 |
| 20260509041839 | 52 | 178 | 0.0 | 0.0 | 0.00 | 0.00 | 0.00 | 99 | 1010.1 |
| 20260509041318 | 52 | 178 | 0.0 | 0.0 | 0.00 | 0.00 | 0.00 | 99 | 1010.2 |
| 20260509040823 | 53 | 178 | 0.0 | 0.0 | 0.00 | 0.00 | 0.00 | 98 | 1010.2 |
| 20260509040328 | 53 | 178 | 0.0 | 0.0 | 0.00 | 0.00 | 0.00 | 98 | 1010.2 |
| 20260509035830 | 53 | 178 | 0.0 | 0.0 | 0.00 | 0.00 | 0.00 | 98 | 1010.1 |
| 20260509035323 | 53 | 178 | 0.0 | 0.0 | 0.00 | 0.00 | 0.00 | 98 | 1010.1 |
| 20260509034828 | 53 | 178 | 0.0 | 0.0 | 0.00 | 0.00 | 0.00 | 98 | 1010.1 |
| 20260509034351 | 53 | 178 | 0.0 | 0.0 | 0.00 | 0.00 | 0.00 | 98 | 1010.2 |
| 20260509033822 | 53 | 178 | 0.0 | 0.0 | 0.00 | 0.00 | 0.00 | 98 | 1010.2 |
| 20260509033328 | 53 | 178 | 0.0 | 0.0 | 0.00 | 0.00 | 0.00 | 98 | 1010.2 |
| 20260509032832 | 53 | 178 | 0.0 | 0.0 | 0.00 | 0.00 | 0.00 | 98 | 1010.2 |
| 20260509032337 | 53 | 178 | 0.0 | 0.0 | 0.00 | 0.00 | 0.00 | 98 | 1010.2 |
| 20260509031823 | 53 | 178 | 0.0 | 0.0 | 0.00 | 0.00 | 0.00 | 97 | 1010.2 |
| 20260509031326 | 53 | 178 | 0.0 | 0.0 | 0.00 | 0.00 | 0.00 | 97 | 1010.3 |
| 20260509030832 | 53 | 178 | 0.0 | 0.0 | 0.00 | 0.00 | 0.00 | 97 | 1010.3 |
| 20260509030315 | 53 | 178 | 0.0 | 0.0 | 0.00 | 0.00 | 0.00 | 97 | 1010.3 |
| 20260509025827 | 53 | 178 | 0.0 | 0.0 | 0.00 | 0.00 | 0.00 | 97 | 1010.3 |
| 20260509025315 | 53 | 178 | 0.0 | 0.0 | 0.00 | 0.00 | 0.00 | 97 | 1010.3 |
| 20260509024823 | 53 | 178 | 0.0 | 0.0 | 0.00 | 0.00 | 0.00 | 97 | 1010.3 |
| 20260509024347 | 53 | 178 | 0.0 | 0.0 | 0.00 | 0.00 | 0.00 | 96 | 1010.3 |
| 20260509023854 | 53 | 178 | 0.0 | 0.0 | 0.00 | 0.00 | 0.00 | 96 | 1010.3 |
| 20260509023315 | 53 | 178 | 0.0 | 0.0 | 0.00 | 0.00 | 0.00 | 94 | 1010.3 |
| 20260509022323 | 53 | 178 | 0.0 | 0.0 | 0.00 | 0.00 | 0.00 | 95 | 1010.3 |
| 20260509021828 | 53 | 178 | 0.0 | 0.0 | 0.00 | 0.00 | 0.00 | 95 | 1010.3 |
| 20260509021352 | 53 | 178 | 0.0 | 0.0 | 0.00 | 0.00 | 0.00 | 95 | 1010.6 |
| 20260509020823 | 53 | 178 | 0.0 | 0.0 | 0.00 | 0.00 | 0.00 | 95 | 1010.6 |
| 20260509020353 | 53 | 178 | 0.0 | 0.0 | 0.00 | 0.00 | 0.00 | 95 | 1010.6 |
| 20260509015836 | 53 | 178 | 0.0 | 0.0 | 0.00 | 0.00 | 0.00 | 95 | 1010.4 |
| 20260509015322 | 54 | 178 | 0.0 | 0.0 | 0.00 | 0.00 | 0.00 | 94 | 1010.4 |
| 20260509014830 | 54 | 178 | 0.0 | 0.0 | 0.00 | 0.00 | 0.00 | 94 | 1010.4 |
| 20260509014334 | 54 | 178 | 0.0 | 0.0 | 0.00 | 0.00 | 0.00 | 92 | 1010.5 |
| 20260509013839 | 54 | 178 | 0.0 | 0.0 | 0.00 | 0.00 | 0.00 | 92 | 1010.5 |
| 20260509013324 | 54 | 178 | 0.0 | 0.0 | 0.00 | 0.00 | 0.00 | 92 | 1010.5 |
| 20260509011813 | 55 | 178 | 0.0 | 0.0 | 0.00 | 0.00 | 0.00 | 92 | 1010.4 |
| 20260509011321 | 55 | 178 | 0.0 | 0.0 | 0.00 | 0.00 | 0.00 | 91 | 1010.2 |
| 20260509010831 | 55 | 178 | 0.0 | 0.0 | 0.00 | 0.00 | 0.00 | 90 | 1010.2 |
| 20260509010337 | 56 | 178 | 0.0 | 0.0 | 0.00 | 0.00 | 0.00 | 87 | 1010.2 |
| 20260509005822 | 56 | 178 | 0.0 | 0.0 | 0.00 | 0.00 | 0.00 | 86 | 1010.2 |
| 20260509005330 | 56 | 178 | 0.0 | 0.0 | 0.00 | 0.00 | 0.00 | 84 | 1010.2 |
| 20260509004835 | 56 | 178 | 0.0 | 0.0 | 0.00 | 0.00 | 0.00 | 81 | 1010.2 |
| 20260509004338 | 57 | 178 | 0.0 | 8.0 | 0.00 | 0.00 | 0.00 | 77 | 1010.1 |
| 20260509003820 | 57 | 178 | 2.0 | 8.0 | 0.00 | 0.00 | 0.00 | 80 | 1010.1 |
| 20260509003324 | 57 | 139 | 0.0 | 0.0 | 0.00 | 0.00 | 0.00 | 79 | 1010.1 |
| 20260509002333 | 58 | 139 | 0.0 | 0.0 | 0.00 | 0.00 | 0.00 | 76 | 1010.0 |
| 20260509001819 | 59 | 139 | 0.0 | 0.0 | 0.00 | 0.00 | 0.00 | 72 | 1010.0 |
| 20260509001347 | 59 | 139 | 0.0 | 0.0 | 0.00 | 0.00 | 0.00 | 70 | 1009.8 |
| 20260509000833 | 60 | 139 | 0.0 | 0.0 | 0.00 | 0.00 | 0.00 | 70 | 1009.8 |
| 20260509000318 | 60 | 139 | 0.0 | 0.0 | 0.00 | 0.00 | 0.00 | 64 | 1009.8 |
| 20260508235818 | 61 | 139 | 0.0 | 0.0 | 0.00 | 0.00 | 0.00 | 62 | 1009.7 |
| 20260508235350 | 61 | 139 | 0.0 | 0.0 | 0.00 | 0.00 | 0.00 | 60 | 1009.7 |
| 20260508234854 | 61 | 139 | 0.0 | 0.0 | 0.00 | 0.00 | 0.00 | 55 | 1009.7 |
| 20260508234337 | 62 | 139 | 0.0 | 3.0 | 0.00 | 0.00 | 0.00 | 54 | 1009.8 |
| 20260508233821 | 62 | 139 | 0.0 | 8.0 | 0.00 | 0.00 | 0.00 | 54 | 1009.8 |
| 20260508233330 | 62 | 137 | 0.0 | 8.0 | 0.00 | 0.00 | 0.00 | 52 | 1009.8 |
| 20260508232818 | 62 | 129 | 1.0 | 8.0 | 0.00 | 0.00 | 0.00 | 53 | 1009.9 |
| 20260508232326 | 62 | 101 | 1.0 | 8.0 | 0.00 | 0.00 | 0.00 | 52 | 1009.9 |
| 20260508231812 | 62 | 136 | 0.0 | 3.0 | 0.00 | 0.00 | 0.00 | 55 | 1009.9 |
| 20260508231337 | 62 | 76 | 0.0 | 3.0 | 0.00 | 0.00 | 0.00 | 55 | 1009.7 |
| 20260508230823 | 62 | 78 | 0.0 | 3.0 | 0.00 | 0.00 | 0.00 | 53 | 1009.7 |
| 20260508230329 | 63 | 86 | 0.0 | 3.0 | 0.00 | 0.00 | 0.00 | 55 | 1009.7 |
| 20260508225835 | 63 | 86 | 0.0 | 3.0 | 0.00 | 0.00 | 0.00 | 51 | 1009.6 |
| 20260508225340 | 63 | 88 | 0.0 | 3.0 | 0.00 | 0.00 | 0.00 | 53 | 1009.6 |
| 20260508224827 | 63 | 93 | 0.0 | 2.0 | 0.00 | 0.00 | 0.00 | 54 | 1009.6 |
| 20260508224330 | 64 | 128 | 0.0 | 0.0 | 0.00 | 0.00 | 0.00 | 51 | 1009.5 |
| 20260508223819 | 64 | 128 | 0.0 | 4.0 | 0.00 | 0.00 | 0.00 | 50 | 1009.5 |
| 20260508223329 | 64 | 128 | 0.0 | 4.0 | 0.00 | 0.00 | 0.00 | 52 | 1009.5 |
| 20260508222833 | 64 | 141 | 1.0 | 4.0 | 0.00 | 0.00 | 0.00 | 49 | 1009.5 |
| 20260508222336 | 64 | 138 | 0.0 | 3.0 | 0.00 | 0.00 | 0.00 | 51 | 1009.5 |
| 20260508221825 | 64 | 138 | 1.0 | 3.0 | 0.00 | 0.00 | 0.00 | 49 | 1009.5 |
| 20260508221329 | 64 | 138 | 0.0 | 4.0 | 0.00 | 0.00 | 0.00 | 50 | 1009.4 |
| 20260508220833 | 64 | 138 | 0.0 | 4.0 | 0.00 | 0.00 | 0.00 | 48 | 1009.4 |
| 20260508220321 | 64 | 142 | 0.0 | 3.0 | 0.00 | 0.00 | 0.00 | 49 | 1009.4 |
| 20260508215824 | 64 | 143 | 0.0 | 0.0 | 0.00 | 0.00 | 0.00 | 49 | 1009.4 |
| 20260508215335 | 65 | 143 | 0.0 | 5.0 | 0.00 | 0.00 | 0.00 | 48 | 1009.4 |
| 20260508214820 | 65 | 143 | 0.0 | 5.0 | 0.00 | 0.00 | 0.00 | 49 | 1009.4 |
| 20260508214325 | 65 | 128 | 1.0 | 5.0 | 0.00 | 0.00 | 0.00 | 48 | 1009.4 |
| 20260508213837 | 65 | 153 | 1.0 | 5.0 | 0.00 | 0.00 | 0.00 | 46 | 1009.4 |
| 20260508213342 | 65 | 146 | 1.0 | 5.0 | 0.00 | 0.00 | 0.00 | 45 | 1009.4 |
| 20260508212846 | 65 | 178 | 2.0 | 5.0 | 0.00 | 0.00 | 0.00 | 48 | 1009.6 |
| 20260508212323 | 65 | 236 | 0.0 | 3.0 | 0.00 | 0.00 | 0.00 | 50 | 1009.6 |
| 20260508211829 | 65 | 146 | 1.0 | 6.0 | 0.00 | 0.00 | 0.00 | 48 | 1009.6 |
| 20260508211335 | 65 | 146 | 1.0 | 6.0 | 0.00 | 0.00 | 0.00 | 47 | 1009.7 |
| 20260508210822 | 65 | 126 | 1.0 | 6.0 | 0.00 | 0.00 | 0.00 | 47 | 1009.7 |
| 20260508210350 | 65 | 122 | 2.0 | 7.0 | 0.00 | 0.00 | 0.00 | 46 | 1009.7 |
| 20260508205853 | 64 | 151 | 2.0 | 9.0 | 0.00 | 0.00 | 0.00 | 46 | 1009.8 |
| 20260508205315 | 64 | 108 | 3.0 | 9.0 | 0.00 | 0.00 | 0.00 | 45 | 1009.8 |
| 20260508204826 | 64 | 144 | 0.0 | 9.0 | 0.00 | 0.00 | 0.00 | 46 | 1009.8 |
| 20260508204349 | 64 | 166 | 3.0 | 9.0 | 0.00 | 0.00 | 0.00 | 45 | 1009.9 |
| 20260508203837 | 64 | 110 | 3.0 | 9.0 | 0.00 | 0.00 | 0.00 | 45 | 1009.9 |
| 20260508203341 | 64 | 123 | 2.0 | 8.0 | 0.00 | 0.00 | 0.00 | 48 | 1009.9 |
| 20260508202823 | 64 | 117 | 3.0 | 10.0 | 0.00 | 0.00 | 0.00 | 46 | 1010.2 |
| 20260508202329 | 64 | 296 | 1.0 | 11.0 | 0.00 | 0.00 | 0.00 | 47 | 1010.2 |
| 20260508201838 | 64 | 132 | 1.0 | 11.0 | 0.00 | 0.00 | 0.00 | 49 | 1010.2 |
| 20260508201321 | 64 | 125 | 1.0 | 11.0 | 0.00 | 0.00 | 0.00 | 48 | 1010.3 |
| 20260508200826 | 63 | 100 | 4.0 | 11.0 | 0.00 | 0.00 | 0.00 | 47 | 1010.3 |
| 20260508200316 | 63 | 178 | 1.0 | 7.0 | 0.00 | 0.00 | 0.00 | 50 | 1010.3 |
| 20260508195818 | 63 | 121 | 2.0 | 7.0 | 0.00 | 0.00 | 0.00 | 50 | 1010.5 |
| 20260508195344 | 63 | 105 | 1.0 | 5.0 | 0.00 | 0.00 | 0.00 | 52 | 1010.5 |
| 20260508194828 | 63 | 85 | 1.0 | 7.0 | 0.00 | 0.00 | 0.00 | 50 | 1010.5 |
| 20260508194331 | 63 | 159 | 0.0 | 7.0 | 0.00 | 0.00 | 0.00 | 51 | 1010.6 |
| 20260508193837 | 64 | 182 | 2.0 | 6.0 | 0.00 | 0.00 | 0.00 | 48 | 1010.6 |
| 20260508193322 | 64 | 125 | 1.0 | 6.0 | 0.00 | 0.00 | 0.00 | 49 | 1010.6 |
| 20260508192828 | 65 | 174 | 1.0 | 6.0 | 0.00 | 0.00 | 0.00 | 49 | 1010.7 |
| 20260508192320 | 65 | 125 | 1.0 | 6.0 | 0.00 | 0.00 | 0.00 | 47 | 1010.7 |
| 20260508191846 | 65 | 281 | 1.0 | 4.0 | 0.00 | 0.00 | 0.00 | 50 | 1010.7 |
| 20260508191352 | 65 | 75 | 1.0 | 13.0 | 0.00 | 0.00 | 0.00 | 49 | 1010.8 |
| 20260508190822 | 65 | 145 | 3.0 | 13.0 | 0.00 | 0.00 | 0.00 | 49 | 1010.8 |
| 20260508190327 | 64 | 194 | 1.0 | 7.0 | 0.00 | 0.00 | 0.00 | 48 | 1010.8 |
| 20260508185829 | 65 | 167 | 2.0 | 8.0 | 0.00 | 0.00 | 0.00 | 50 | 1011.2 |
| 20260508185354 | 65 | 224 | 1.0 | 5.0 | 0.00 | 0.00 | 0.00 | 50 | 1011.2 |
| 20260508184821 | 64 | 186 | 2.0 | 6.0 | 0.00 | 0.00 | 0.00 | 50 | 1011.2 |
| 20260508184326 | 64 | 103 | 2.0 | 7.0 | 0.00 | 0.00 | 0.00 | 52 | 1011.5 |
| 20260508183831 | 64 | 167 | 3.0 | 7.0 | 0.00 | 0.00 | 0.00 | 50 | 1011.5 |
| 20260508183320 | 64 | 175 | 1.0 | 10.0 | 0.00 | 0.00 | 0.00 | 50 | 1011.5 |
| 20260508182842 | 64 | 198 | 1.0 | 10.0 | 0.00 | 0.00 | 0.00 | 50 | 1011.9 |
| 20260508182330 | 65 | 119 | 2.0 | 7.0 | 0.00 | 0.00 | 0.00 | 51 | 1011.9 |
| 20260508181823 | 65 | 194 | 1.0 | 8.0 | 0.00 | 0.00 | 0.00 | 51 | 1011.9 |
| 20260508181345 | 64 | 175 | 2.0 | 8.0 | 0.00 | 0.00 | 0.00 | 50 | 1012.2 |
| 20260508180829 | 64 | 250 | 2.0 | 9.0 | 0.00 | 0.00 | 0.00 | 54 | 1012.2 |
| 20260508180315 | 63 | 67 | 1.0 | 9.0 | 0.00 | 0.00 | 0.00 | 54 | 1012.2 |
| 20260508175821 | 62 | 172 | 1.0 | 5.0 | 0.00 | 0.00 | 0.00 | 54 | 1012.4 |
| 20260508175351 | 62 | 128 | 0.0 | 6.0 | 0.00 | 0.00 | 0.00 | 56 | 1012.4 |
| 20260508174829 | 61 | 143 | 2.0 | 6.0 | 0.00 | 0.00 | 0.00 | 55 | 1012.4 |
| 20260508174332 | 61 | 151 | 0.0 | 6.0 | 0.00 | 0.00 | 0.00 | 58 | 1012.8 |
| 20260508173857 | 61 | 151 | 2.0 | 6.0 | 0.00 | 0.00 | 0.00 | 56 | 1012.8 |
| 20260508173319 | 61 | 153 | 0.0 | 5.0 | 0.00 | 0.00 | 0.00 | 58 | 1012.8 |
| 20260508172818 | 60 | 151 | 1.0 | 6.0 | 0.00 | 0.00 | 0.00 | 55 | 1012.9 |
| 20260508172346 | 60 | 91 | 2.0 | 7.0 | 0.00 | 0.00 | 0.00 | 55 | 1012.9 |
| 20260508171831 | 60 | 139 | 2.0 | 7.0 | 0.00 | 0.00 | 0.00 | 55 | 1012.9 |
| 20260508171334 | 60 | 83 | 0.0 | 6.0 | 0.00 | 0.00 | 0.00 | 56 | 1013.0 |
| 20260508170823 | 60 | 82 | 2.0 | 6.0 | 0.00 | 0.00 | 0.00 | 55 | 1013.0 |
| 20260508170329 | 60 | 128 | 2.0 | 6.0 | 0.00 | 0.00 | 0.00 | 55 | 1013.0 |
| 20260508165833 | 60 | 127 | 1.0 | 5.0 | 0.00 | 0.00 | 0.00 | 55 | 1013.2 |
| 20260508165321 | 60 | 115 | 1.0 | 9.0 | 0.00 | 0.00 | 0.00 | 54 | 1013.2 |
| 20260508164828 | 60 | 153 | 2.0 | 9.0 | 0.00 | 0.00 | 0.00 | 55 | 1013.2 |
| 20260508164354 | 60 | 191 | 1.0 | 9.0 | 0.00 | 0.00 | 0.00 | 54 | 1013.3 |
| 20260508163822 | 60 | 160 | 2.0 | 9.0 | 0.00 | 0.00 | 0.00 | 53 | 1013.3 |
| 20260508163328 | 60 | 131 | 1.0 | 10.0 | 0.00 | 0.00 | 0.00 | 55 | 1013.3 |
| 20260508162848 | 60 | 113 | 3.0 | 10.0 | 0.00 | 0.00 | 0.00 | 53 | 1013.4 |
| 20260508162355 | 59 | 67 | 0.0 | 8.0 | 0.00 | 0.00 | 0.00 | 55 | 1013.4 |
| 20260508161820 | 59 | 103 | 2.0 | 8.0 | 0.00 | 0.00 | 0.00 | 57 | 1013.4 |
| 20260508161323 | 59 | 167 | 1.0 | 6.0 | 0.00 | 0.00 | 0.00 | 55 | 1013.5 |
| 20260508160828 | 58 | 112 | 1.0 | 5.0 | 0.00 | 0.00 | 0.00 | 57 | 1013.5 |
| 20260508160338 | 58 | 129 | 2.0 | 6.0 | 0.00 | 0.00 | 0.00 | 57 | 1013.5 |
| 20260508155821 | 57 | 155 | 2.0 | 8.0 | 0.00 | 0.00 | 0.00 | 56 | 1013.5 |
| 20260508155325 | 57 | 113 | 1.0 | 8.0 | 0.00 | 0.00 | 0.00 | 57 | 1013.5 |
| 20260508154831 | 57 | 259 | 1.0 | 4.0 | 0.00 | 0.00 | 0.00 | 59 | 1013.5 |
| 20260508154337 | 57 | 159 | 1.0 | 7.0 | 0.00 | 0.00 | 0.00 | 60 | 1013.9 |
| 20260508153822 | 56 | 151 | 1.0 | 7.0 | 0.00 | 0.00 | 0.00 | 60 | 1013.9 |
| 20260508153333 | 56 | 125 | 2.0 | 7.0 | 0.00 | 0.00 | 0.00 | 61 | 1013.9 |
| 20260508152835 | 55 | 159 | 2.0 | 7.0 | 0.00 | 0.00 | 0.00 | 63 | 1014.1 |
| 20260508152321 | 55 | 132 | 0.0 | 6.0 | 0.00 | 0.00 | 0.00 | 65 | 1014.1 |
| 20260508151830 | 55 | 122 | 1.0 | 6.0 | 0.00 | 0.00 | 0.00 | 64 | 1014.1 |
| 20260508151332 | 55 | 111 | 1.0 | 5.0 | 0.00 | 0.00 | 0.00 | 64 | 1014.0 |
| 20260508150842 | 55 | 136 | 1.0 | 5.0 | 0.00 | 0.00 | 0.00 | 63 | 1014.0 |
| 20260508150346 | 55 | 142 | 0.0 | 2.0 | 0.00 | 0.00 | 0.00 | 64 | 1014.0 |
| 20260508145831 | 55 | 142 | 0.0 | 4.0 | 0.00 | 0.00 | 0.00 | 62 | 1014.0 |
| 20260508145316 | 54 | 142 | 0.0 | 4.0 | 0.00 | 0.00 | 0.00 | 61 | 1014.0 |
| 20260508144824 | 54 | 192 | 0.0 | 8.0 | 0.00 | 0.00 | 0.00 | 62 | 1014.0 |
| 20260508144329 | 54 | 182 | 1.0 | 8.0 | 0.00 | 0.00 | 0.00 | 60 | 1014.0 |
| 20260508143835 | 54 | 151 | 1.0 | 9.0 | 0.00 | 0.00 | 0.00 | 61 | 1014.0 |
| 20260508143317 | 55 | 70 | 1.0 | 9.0 | 0.00 | 0.00 | 0.00 | 61 | 1014.0 |
| 20260508142819 | 55 | 283 | 1.0 | 7.0 | 0.00 | 0.00 | 0.00 | 59 | 1014.0 |
| 20260508142323 | 55 | 143 | 2.0 | 7.0 | 0.00 | 0.00 | 0.00 | 58 | 1014.0 |
| 20260508141828 | 55 | 83 | 1.0 | 7.0 | 0.00 | 0.00 | 0.00 | 59 | 1014.0 |
| 20260508141333 | 55 | 188 | 1.0 | 7.0 | 0.00 | 0.00 | 0.00 | 58 | 1014.0 |
| 20260508140823 | 55 | 88 | 0.0 | 12.0 | 0.00 | 0.00 | 0.00 | 59 | 1014.0 |
| 20260508140327 | 55 | 211 | 2.0 | 12.0 | 0.00 | 0.00 | 0.00 | 62 | 1014.0 |
| 20260508135834 | 55 | 155 | 1.0 | 12.0 | 0.00 | 0.00 | 0.00 | 60 | 1014.0 |
| 20260508135320 | 54 | 123 | 1.0 | 12.0 | 0.00 | 0.00 | 0.00 | 61 | 1014.0 |
| 20260508134828 | 54 | 85 | 0.0 | 5.0 | 0.00 | 0.00 | 0.00 | 63 | 1014.0 |
| 20260508134330 | 53 | 148 | 1.0 | 7.0 | 0.00 | 0.00 | 0.00 | 62 | 1014.0 |
| 20260508133835 | 53 | 76 | 2.0 | 9.0 | 0.00 | 0.00 | 0.00 | 61 | 1014.0 |
| 20260508133317 | 53 | 166 | 2.0 | 9.0 | 0.00 | 0.00 | 0.00 | 62 | 1014.0 |
| 20260508132818 | 53 | 164 | 1.0 | 8.0 | 0.00 | 0.00 | 0.00 | 62 | 1013.9 |
| 20260508132327 | 53 | 107 | 4.0 | 8.0 | 0.00 | 0.00 | 0.00 | 60 | 1013.9 |
| 20260508131816 | 53 | 100 | 0.0 | 5.0 | 0.00 | 0.00 | 0.00 | 65 | 1013.9 |
| 20260508131319 | 52 | 208 | 2.0 | 6.0 | 0.00 | 0.00 | 0.00 | 62 | 1014.0 |
| 20260508130845 | 52 | 184 | 1.0 | 6.0 | 0.00 | 0.00 | 0.00 | 64 | 1014.0 |
| 20260508130333 | 51 | 150 | 2.0 | 6.0 | 0.00 | 0.00 | 0.00 | 65 | 1014.0 |
| 20260508125821 | 51 | 109 | 1.0 | 5.0 | 0.00 | 0.00 | 0.00 | 65 | 1013.8 |
| 20260508125327 | 51 | 154 | 1.0 | 6.0 | 0.00 | 0.00 | 0.00 | 66 | 1013.8 |
| 20260508124833 | 50 | 169 | 1.0 | 6.0 | 0.00 | 0.00 | 0.00 | 65 | 1013.8 |
| 20260508124335 | 50 | 210 | 1.0 | 6.0 | 0.00 | 0.00 | 0.00 | 66 | 1014.0 |
| 20260508123818 | 50 | 136 | 0.0 | 3.0 | 0.00 | 0.00 | 0.00 | 67 | 1014.0 |
| 20260508123344 | 49 | 135 | 0.0 | 3.0 | 0.00 | 0.00 | 0.00 | 67 | 1014.0 |
| 20260508122826 | 49 | 80 | 0.0 | 4.0 | 0.00 | 0.00 | 0.00 | 67 | 1014.0 |
| 20260508122332 | 49 | 231 | 1.0 | 6.0 | 0.00 | 0.00 | 0.00 | 68 | 1014.0 |
| 20260508121838 | 48 | 141 | 2.0 | 6.0 | 0.00 | 0.00 | 0.00 | 68 | 1014.0 |
| 20260508121320 | 48 | 165 | 1.0 | 5.0 | 0.00 | 0.00 | 0.00 | 70 | 1013.9 |
| 20260508120830 | 48 | 178 | 1.0 | 5.0 | 0.00 | 0.00 | 0.00 | 70 | 1013.9 |
| 20260508120318 | 47 | 123 | 0.0 | 3.0 | 0.00 | 0.00 | 0.00 | 71 | 1013.9 |
| 20260508115821 | 47 | 76 | 0.0 | 4.0 | 0.00 | 0.00 | 0.00 | 71 | 1013.9 |
| 20260508115328 | 47 | 173 | 0.0 | 4.0 | 0.00 | 0.00 | 0.00 | 72 | 1013.9 |
| 20260508114813 | 46 | 138 | 0.0 | 3.0 | 0.00 | 0.00 | 0.00 | 72 | 1013.9 |
| 20260508114320 | 46 | 259 | 1.0 | 3.0 | 0.00 | 0.00 | 0.00 | 72 | 1013.7 |
| 20260508113826 | 46 | 125 | 0.0 | 6.0 | 0.00 | 0.00 | 0.00 | 72 | 1013.7 |
| 20260508113314 | 46 | 165 | 0.0 | 6.0 | 0.00 | 0.00 | 0.00 | 73 | 1013.7 |
| 20260508112838 | 46 | 63 | 0.0 | 2.0 | 0.00 | 0.00 | 0.00 | 73 | 1013.5 |
| 20260508112322 | 45 | 156 | 0.0 | 4.0 | 0.00 | 0.00 | 0.00 | 75 | 1013.5 |
| 20260508111814 | 45 | 176 | 0.0 | 4.0 | 0.00 | 0.00 | 0.00 | 75 | 1013.5 |
| 20260508111338 | 45 | 116 | 0.0 | 2.0 | 0.00 | 0.00 | 0.00 | 76 | 1013.4 |
| 20260508110823 | 45 | 115 | 0.0 | 2.0 | 0.00 | 0.00 | 0.00 | 76 | 1013.4 |
| 20260508110329 | 45 | 116 | 0.0 | 2.0 | 0.00 | 0.00 | 0.00 | 77 | 1013.4 |
| 20260508105830 | 45 | 158 | 0.0 | 0.0 | 0.00 | 0.00 | 0.00 | 78 | 1013.3 |
| 20260508105317 | 44 | 158 | 0.0 | 2.0 | 0.00 | 0.00 | 0.00 | 78 | 1013.3 |
| 20260508104823 | 44 | 158 | 0.0 | 2.0 | 0.00 | 0.00 | 0.00 | 80 | 1013.3 |
| 20260508104324 | 44 | 159 | 0.0 | 2.0 | 0.00 | 0.00 | 0.00 | 80 | 1013.2 |
| 20260508103853 | 43 | 51 | 0.0 | 0.0 | 0.00 | 0.00 | 0.00 | 82 | 1013.2 |
| 20260508103316 | 43 | 51 | 0.0 | 0.0 | 0.00 | 0.00 | 0.00 | 84 | 1013.2 |
| 20260508102818 | 43 | 51 | 0.0 | 0.0 | 0.00 | 0.00 | 0.00 | 86 | 1013.1 |
| 20260508102328 | 43 | 51 | 0.0 | 0.0 | 0.00 | 0.00 | 0.00 | 84 | 1013.1 |
| 20260508101816 | 43 | 51 | 0.0 | 0.0 | 0.00 | 0.00 | 0.00 | 84 | 1013.1 |
| 20260508101321 | 43 | 51 | 0.0 | 0.0 | 0.00 | 0.00 | 0.00 | 82 | 1013.2 |
| 20260508100845 | 43 | 51 | 0.0 | 0.0 | 0.00 | 0.00 | 0.00 | 82 | 1013.2 |
| 20260508100336 | 43 | 51 | 0.0 | 0.0 | 0.00 | 0.00 | 0.00 | 82 | 1013.2 |
| 20260508095822 | 43 | 51 | 0.0 | 0.0 | 0.00 | 0.00 | 0.00 | 80 | 1013.1 |
| 20260508095328 | 43 | 51 | 0.0 | 0.0 | 0.00 | 0.00 | 0.00 | 81 | 1013.1 |
| 20260508094853 | 44 | 51 | 0.0 | 0.0 | 0.00 | 0.00 | 0.00 | 81 | 1013.1 |
| 20260508094335 | 44 | 51 | 0.0 | 0.0 | 0.00 | 0.00 | 0.00 | 81 | 1013.1 |
| 20260508093820 | 44 | 51 | 0.0 | 0.0 | 0.00 | 0.00 | 0.00 | 79 | 1013.1 |